Wetbulb
37.32 28.79 23.88 28.21 31.52 31.10 30.48 28.53 28.30 32.48 37.57 35.07 33.26 34.14 37.16 39.88 38.57 35.08 35.68 36.38 37.60 39.01 42.32 43.91 44.85 44.66 43.67 43.06 43.01 42.82 43.20 45.13 45.84 46.97 47.45 45.26 45.22 46.93 49.54 53.89 57.36 59.44 60.20 61.53
32.06 26.78 33.64 37.16 36.37 34.15 31.59 27.98 29.64 33.90 37.10 35.39 33.17 33.11 36.68 38.20 37.47 36.65 36.37 36.15 37.23 38.42 40.83 43.07 43.37 42.87 42.09 41.33 41.28 41.30 41.83 42.68 43.81 45.38 47.57 48.22 47.36 48.83 50.08 52.20 56.15 58.88 60.07 60.96
28.74 33.23 38.00 36.67 35.21 34.65 32.37 28.38 29.71 29.75 34.54 34.37 31.86 29.27 33.52 36.92 37.17 37.46 37.76 36.60 37.23 37.93 39.22 41.06 42.06 41.52 40.86 39.81 39.73 40.48 41.07 41.38 42.28 44.03 46.74 49.20 49.00 49.78 50.25 52.06 55.69 58.77 60.05 59.85
33.21 36.83 36.09 34.65 34.99 34.84 29.15 35.33 34.78 33.40 30.03 22.03 31.10 22.49 29.97 33.95 35.27 37.03 36.83 35.01 35.76 36.43 38.99 40.66 41.23 40.83 40.26 39.94 40.17 40.16 41.46 41.09 42.80 45.14 45.98 46.72 47.08 45.91 47.48 49.94 52.69 56.16 59.10 59.42
31.59 34.01 34.02 34.50 35.99 36.55 33.03 37.61 34.83 32.95 27.88 28.57 26.89 19.64 28.82 33.50 33.77 35.36 36.29 36.01 36.34 37.37 38.67 39.08 39.83 40.71 40.81 39.99 39.44 39.61 41.69 43.15 45.12 47.33 48.36 49.08 49.18 48.96 48.78 50.28 52.57 55.17 56.74 58.37
35.70 39.69 37.37 36.38 38.64 38.32 39.18 34.71 33.41 30.91 30.69 16.04 25.66 23.13 25.82 27.38 32.26 34.01 34.53 35.90 37.40 38.56 39.43 40.03 40.32 39.45 38.40 39.72 39.42 40.70 41.75 43.00 44.66 45.87 48.00 50.02 50.10 48.97 48.08 49.02 50.67 53.53 56.63 55.97
33.48 35.60 37.89 38.99 35.13 38.00 34.69 23.05 16.57 17.26 16.90 18.63 27.31 21.61 28.19 33.39 35.55 36.29 37.01 37.00 37.74 38.84 39.14 39.46 36.36 35.96 37.11 38.41 39.06 40.68 40.55 41.35 43.17 44.36 46.01 47.87 49.40 51.04 50.49 51.95 51.34 52.22 52.33 49.89
23.49 21.00 34.93 38.36 35.94 31.41 32.16 27.44 18.47 15.06 16.60 19.36 28.85 22.67 28.28 36.83 39.16 38.71 39.11 38.47 38.95 39.17 39.60 38.99 36.02 35.99 36.29 38.22 39.05 40.59 40.53 40.28 41.71 42.76 44.01 45.11 46.95 48.95 48.76 49.15 49.84 49.48 48.57 47.56
26.55 26.98 37.64 38.33 39.36 37.79 33.20 25.60 32.90 25.47 23.84 21.75 20.98 27.36 33.57 37.81 38.33 38.51 38.53 39.45 38.73 39.17 39.58 36.99 35.42 35.78 35.44 36.43 37.71 40.05 40.46 40.08 40.82 41.64 42.56 42.96 44.03 45.11 46.33 46.15 45.04 45.09 45.50 46.49
32.00 24.97 34.30 37.63 38.78 37.69 35.10 36.82 24.56 22.07 16.54 15.15 19.39 21.52 24.39 29.88 34.73 37.01 37.72 38.04 39.00 39.89 39.15 35.92 35.19 35.07 35.22 36.19 36.42 38.50 40.23 38.74 40.44 41.31 41.43 41.85 42.18 42.82 43.33 44.04 43.60 42.84 43.15 42.69
33.93 30.07 28.62 35.11 32.92 31.85 32.74 30.18 31.51 28.74 25.89 19.46 18.48 20.84 30.39 32.14 36.53 37.16 37.65 38.97 39.27 39.45 39.35 35.24 33.57 33.61 34.03 34.32 34.69 34.90 37.75 39.94 40.02 40.64 41.10 41.03 41.14 41.31 41.68 40.94 41.18 40.79 40.11 40.94
35.35 30.77 23.68 28.86 34.40 36.92 35.19 32.74 31.43 22.60 21.11 24.74 23.10 23.26 35.35 38.42 39.73 38.54 38.30 38.79 39.12 40.09 39.16 33.70 32.97 32.84 32.43 31.64 32.20 32.40 32.41 33.59 38.36 40.12 39.89 40.51 38.74 40.06 39.75 39.38 39.22 38.22 38.11 40.66
34.91 27.64 19.39 22.13 28.19 32.30 30.76 32.14 31.80 29.31 26.52 22.63 18.60 22.63 35.49 34.67 37.00 38.03 37.35 38.35 38.93 39.22 34.87 33.34 31.79 31.71 31.72 30.79 31.36 31.95 31.84 31.53 32.40 33.07 36.63 37.02 36.68 36.75 36.20 35.90 36.11 35.33 35.91 37.01
39.59 29.18 24.71 18.44 23.87 29.47 28.29 30.34 31.11 28.66 21.31 22.87 24.42 28.18 34.26 34.59 33.85 35.08 34.49 34.93 36.06 37.89 35.28 33.49 32.14 30.74 30.77 30.80 30.90 31.18 31.39 31.46 31.94 31.98 31.12 30.75 31.78 32.81 32.95 32.77 33.10 33.92 33.97 33.36
34.51 26.42 25.66 28.62 30.51 30.59 29.92 29.91 30.71 26.57 28.50 25.48 26.35 28.27 33.43 34.26 33.30 33.89 36.05 36.54 35.68 36.62 36.40 34.85 33.63 32.18 30.63 30.41 30.10 30.72 31.44 31.66 31.56 31.27 30.76 30.42 30.88 30.99 31.09 31.24 31.33 31.90 32.00 32.20
34.55 26.56 27.00 23.96 29.60 28.97 27.22 29.47 29.70 30.64 31.45 31.23 31.65 30.57 37.89 38.99 39.15 36.63 36.44 35.96 36.43 38.10 38.48 37.31 35.50 33.75 32.18 30.30 30.24 30.95 31.19 31.48 31.56 30.72 30.57 31.16 30.93 30.96 30.60 30.57 30.66 30.75 30.62 30.54
31.12 28.70 25.03 21.95 26.54 26.46 23.59 27.53 29.13 28.28 29.67 31.40 27.30 32.98 36.74 35.21 34.88 34.98 35.50 36.28 36.68 37.36 38.58 38.29 36.89 35.59 34.18 32.14 31.60 30.11 30.75 31.30 30.78 30.37 30.67 31.11 31.02 30.40 30.36 30.25 30.09 29.70 29.34 29.37
28.87 27.79 27.09 22.66 23.70 15.40 28.28 31.58 31.97 30.55 31.84 33.15 33.18 34.78 35.18 34.77 34.94 35.54 35.84 35.48 35.84 36.39 37.68 38.35 37.05 35.17 34.23 32.60 31.23 30.94 30.97 30.59 30.66 30.56 30.88 31.35 31.29 30.60 30.42 29.92 29.32 28.95 29.14 28.82
31.53 28.57 24.73 21.25 19.01 24.66 28.58 28.49 28.97 28.41 29.41 33.37 34.11 36.02 36.99 34.02 34.28 36.18 36.22 35.59 36.82 36.87 37.76 38.24 38.16 36.31 33.69 32.51 31.58 30.60 29.86 30.06 30.34 30.56 30.78 31.10 31.07 30.27 29.87 28.97 28.27 28.60 28.61 28.63
30.76 30.85 27.20 22.81 20.03 19.24 26.76 29.29 32.80 31.19 24.74 30.85 33.81 34.56 33.12 32.99 28.59 33.51 34.22 36.29 36.82 37.90 38.17 38.45 37.85 34.79 33.22 31.44 31.25 30.28 29.38 28.94 29.07 30.42 30.63 31.01 31.08 30.29 29.12 28.74 28.09 28.78 28.67 28.67
26.12 25.63 25.32 24.70 21.73 25.34 32.63 33.71 32.86 23.09 29.14 30.93 32.70 33.42 32.04 31.79 35.14 35.01 34.93 35.83 36.33 36.97 37.69 38.83 35.64 34.35 34.23 31.44 31.06 30.07 29.01 28.91 30.57 31.49 31.22 31.07 30.90 30.26 29.44 28.49 27.95 28.33 27.90 27.56
25.80 23.72 23.91 25.61 24.19 19.89 34.23 32.00 29.52 33.34 30.30 32.57 32.77 34.17 34.17 33.71 34.92 36.68 36.40 36.60 37.12 37.02 37.10 38.02 34.89 33.66 32.45 31.27 31.59 30.26 29.81 31.04 31.22 31.52 31.25 30.57 30.26 30.68 30.51 27.84 27.67 27.97 26.78 25.59
25.02 29.24 26.64 28.31 27.66 33.77 34.36 34.17 37.15 33.87 33.04 33.75 33.73 35.71 35.64 34.88 35.82 37.08 37.10 36.48 36.29 36.25 36.37 37.10 35.11 33.85 32.42 31.03 32.24 30.68 31.86 31.04 31.07 30.91 29.87 29.39 29.34 28.62 28.44 28.00 27.36 26.89 26.18 24.95
32.86 34.75 30.10 28.67 35.23 35.49 37.58 39.18 38.51 38.28 35.69 38.56 37.98 37.19 36.50 35.29 35.90 36.02 36.11 36.24 35.93 36.16 36.06 35.63 34.90 33.11 32.58 31.10 31.80 33.14 31.38 31.75 31.34 30.26 29.31 28.51 27.21 26.63 26.84 27.39 28.16 26.98 25.40 25.15
35.14 33.99 33.07 31.59 36.07 37.67 39.01 40.24 41.08 40.06 38.07 36.88 36.81 35.69 35.90 35.57 36.35 36.68 37.73 36.19 36.35 36.19 36.35 35.37 34.63 34.29 34.51 32.71 32.03 31.67 31.57 31.72 30.72 29.47 28.51 28.24 27.51 28.50 26.25 26.51 26.14 26.71 26.83 27.21
37.37 35.91 33.05 32.04 39.78 39.37 40.08 42.95 42.91 36.91 39.90 40.75 36.46 37.03 39.88 36.72 37.08 36.67 36.23 36.19 35.95 35.97 35.51 35.06 34.69 34.30 34.89 33.12 32.74 31.74 32.13 31.79 30.69 29.17 28.05 27.71 27.88 26.58 26.84 26.50 26.23 32.43 33.37 33.16
MSLP
1022.26 1023.23 1024.22 1024.08 1023.87 1023.78 1023.85 1024.01 1023.88 1022.97 1022.40 1022.16 1021.37 1020.42 1019.06 1018.38 1018.65 1019.11 1019.52 1019.76 1019.88 1019.60 1019.10 1018.71 1018.50 1018.45 1018.35 1018.14 1017.83 1017.54 1017.07 1016.18 1015.86 1014.94 1014.33 1013.73 1013.04 1012.46 1012.01 1011.64 1011.37 1011.31 1011.32 1011.27
1023.15 1024.15 1024.18 1023.85 1023.75 1023.78 1023.86 1023.93 1023.80 1022.97 1022.67 1022.82 1021.57 1020.18 1018.98 1018.56 1018.79 1019.12 1019.53 1019.87 1019.77 1019.50 1019.05 1018.67 1018.53 1018.44 1018.49 1018.37 1018.06 1017.63 1017.14 1016.59 1015.94 1015.37 1014.39 1014.01 1013.23 1012.27 1011.48 1011.12 1010.97 1010.85 1010.93 1011.14
1023.69 1024.22 1023.83 1023.67 1023.58 1023.60 1023.70 1024.02 1024.22 1024.43 1023.42 1022.83 1022.39 1020.54 1019.30 1018.78 1018.97 1019.30 1019.47 1019.60 1019.67 1019.68 1019.35 1018.94 1018.77 1018.56 1018.32 1018.31 1017.99 1017.56 1016.94 1016.42 1015.77 1015.06 1014.33 1013.50 1012.77 1012.04 1011.57 1011.28 1011.10 1010.85 1010.53 1010.71
1023.93 1023.85 1023.67 1023.53 1023.49 1023.59 1023.73 1023.74 1024.10 1024.40 1024.60 1024.21 1023.53 1022.35 1020.01 1019.14 1019.04 1019.07 1019.00 1019.35 1019.56 1019.57 1019.30 1018.97 1018.62 1018.41 1018.15 1018.09 1017.81 1017.33 1016.73 1016.26 1015.41 1014.57 1014.00 1013.47 1013.07 1012.46 1011.74 1011.27 1010.91 1010.72 1010.35 1010.44
1024.12 1023.85 1023.68 1023.52 1023.36 1023.43 1023.60 1023.71 1024.17 1024.57 1024.88 1024.95 1024.31 1023.96 1019.88 1019.39 1018.90 1018.38 1018.32 1018.78 1018.97 1019.01 1019.05 1018.75 1018.62 1018.38 1018.03 1017.90 1017.58 1017.16 1016.52 1015.77 1014.94 1014.13 1013.54 1013.02 1012.50 1012.05 1011.56 1011.26 1010.91 1010.78 1010.56 1010.48
1023.80 1023.53 1023.50 1023.36 1023.28 1023.35 1023.48 1023.94 1024.35 1024.73 1025.13 1025.48 1024.32 1023.96 1020.64 1019.42 1018.30 1017.95 1017.98 1018.26 1018.55 1018.71 1018.66 1018.53 1018.37 1018.12 1018.05 1017.77 1017.50 1016.93 1016.28 1015.58 1014.86 1014.17 1013.30 1012.54 1012.05 1011.56 1011.42 1011.23 1011.15 1010.90 1010.85 1011.01
1023.97 1023.63 1023.27 1023.21 1023.38 1023.39 1023.89 1024.72 1025.18 1025.69 1025.77 1025.39 1024.37 1024.02 1020.01 1018.29 1017.70 1017.59 1017.61 1017.74 1018.01 1018.18 1018.21 1018.13 1018.12 1017.88 1017.98 1017.66 1017.28 1016.77 1016.21 1015.42 1014.88 1014.27 1013.65 1012.92 1012.31 1011.67 1011.38 1011.27 1011.13 1011.17 1011.45 1011.88
1024.51 1023.74 1023.27 1023.04 1023.20 1023.48 1023.93 1024.82 1026.16 1026.91 1027.00 1025.91 1024.38 1022.92 1018.68 1017.38 1016.98 1016.93 1017.04 1017.22 1017.46 1017.74 1017.71 1017.73 1017.72 1017.69 1017.88 1017.68 1017.23 1016.58 1016.15 1015.69 1015.13 1014.60 1014.01 1013.48 1012.86 1012.32 1011.83 1011.65 1011.68 1011.92 1012.09 1012.36
1024.22 1023.57 1022.94 1022.86 1022.67 1023.13 1023.72 1024.67 1025.39 1026.36 1026.85 1026.54 1023.97 1021.39 1018.14 1017.01 1016.64 1016.53 1016.62 1016.85 1016.89 1017.11 1017.15 1017.15 1017.26 1017.36 1017.54 1017.51 1017.20 1016.82 1016.32 1015.90 1015.50 1014.96 1014.40 1013.90 1013.58 1013.21 1012.85 1012.67 1012.80 1012.82 1013.08 1013.20
1024.01 1024.02 1023.11 1022.81 1022.75 1023.07 1023.44 1024.29 1025.19 1026.20 1026.86 1026.38 1023.74 1021.81 1018.83 1016.99 1016.30 1016.10 1016.10 1016.25 1016.24 1016.31 1016.48 1016.69 1016.89 1016.96 1017.15 1017.07 1016.95 1016.75 1016.56 1016.23 1015.66 1015.14 1014.73 1014.53 1014.26 1014.02 1013.86 1013.81 1013.84 1013.54 1013.50 1013.39
1023.84 1024.47 1023.84 1023.37 1023.10 1022.97 1023.70 1024.06 1024.76 1025.53 1026.15 1026.33 1024.97 1020.38 1016.98 1016.21 1015.71 1015.59 1015.49 1015.57 1015.60 1015.63 1015.84 1016.17 1016.47 1016.68 1016.96 1016.93 1016.83 1016.63 1016.47 1016.25 1015.95 1015.59 1015.19 1015.06 1014.82 1014.59 1014.42 1014.33 1014.30 1014.30 1014.46 1014.49
1023.92 1024.71 1024.78 1023.55 1022.75 1022.54 1022.79 1023.13 1023.86 1025.01 1025.49 1025.35 1024.57 1019.63 1015.77 1015.39 1015.02 1014.91 1014.84 1014.88 1014.89 1015.03 1015.30 1015.73 1016.04 1016.27 1016.54 1016.60 1016.48 1016.49 1016.37 1016.21 1015.92 1015.74 1015.54 1015.41 1015.23 1014.98 1014.89 1014.85 1014.76 1014.69 1014.71 1014.68
1023.90 1024.87 1024.98 1023.96 1023.45 1022.81 1022.75 1022.66 1023.08 1023.92 1024.39 1024.22 1023.62 1018.20 1015.04 1014.67 1014.48 1014.30 1014.45 1014.42 1014.31 1014.49 1014.74 1015.24 1015.72 1015.94 1016.07 1016.26 1016.28 1016.11 1016.08 1016.07 1016.07 1015.93 1015.66 1015.58 1015.48 1015.30 1015.28 1015.20 1015.18 1015.25 1015.27 1015.30
1023.81 1024.74 1024.91 1024.31 1023.21 1022.79 1022.72 1022.36 1022.60 1023.07 1023.61 1022.74 1019.65 1016.41 1014.07 1014.10 1013.91 1013.61 1013.70 1013.75 1013.73 1013.82 1013.97 1014.48 1015.21 1015.45 1015.55 1015.82 1015.97 1016.02 1016.09 1016.08 1016.06 1016.04 1015.99 1015.97 1015.98 1015.90 1015.73 1015.64 1015.54 1015.45 1015.39 1015.40
1024.35 1024.96 1024.96 1024.27 1023.44 1022.87 1022.08 1021.73 1021.94 1021.92 1021.62 1021.21 1016.85 1016.36 1013.10 1013.23 1013.39 1013.15 1013.13 1013.08 1013.14 1013.04 1013.31 1013.64 1014.13 1014.54 1014.89 1015.20 1015.47 1015.57 1015.64 1015.67 1015.74 1015.88 1015.96 1016.01 1016.04 1016.00 1015.92 1015.84 1015.81 1015.77 1015.69 1015.65
1024.67 1024.85 1024.92 1024.02 1022.76 1022.34 1021.11 1020.05 1019.88 1019.93 1019.73 1018.94 1017.40 1015.73 1012.80 1012.43 1012.56 1012.62 1012.58 1012.67 1012.79 1012.41 1012.30 1012.42 1012.80 1013.39 1013.89 1014.21 1014.64 1015.01 1015.11 1015.32 1015.54 1015.71 1015.81 1015.86 1015.89 1015.89 1015.88 1015.88 1015.89 1015.83 1015.78 1015.69
1024.80 1025.19 1025.31 1023.94 1022.79 1021.53 1019.15 1016.98 1017.02 1017.54 1017.08 1016.73 1016.58 1012.69 1012.57 1012.17 1012.22 1011.99 1011.92 1012.03 1011.90 1011.55 1011.48 1011.63 1011.81 1012.27 1012.70 1013.14 1013.68 1014.25 1014.59 1014.94 1015.17 1015.36 1015.54 1015.65 1015.77 1015.95 1016.06 1016.07 1016.09 1016.07 1016.01 1015.87
1024.36 1025.04 1025.27 1024.47 1023.07 1020.66 1016.55 1015.71 1015.76 1015.85 1014.99 1014.65 1013.70 1012.25 1011.66 1011.46 1011.48 1011.43 1011.32 1011.41 1011.15 1011.14 1010.90 1010.92 1011.09 1011.36 1011.83 1012.42 1013.09 1013.49 1014.07 1014.55 1014.96 1015.22 1015.30 1015.34 1015.42 1015.51 1015.57 1015.69 1015.81 1015.87 1015.84 1015.84
1023.58 1024.64 1025.23 1024.79 1023.62 1019.35 1015.12 1014.45 1014.56 1014.81 1012.86 1011.93 1012.45 1011.71 1011.16 1011.65 1011.69 1010.39 1010.26 1010.34 1010.62 1010.61 1010.43 1010.35 1010.37 1010.59 1011.08 1011.67 1012.12 1012.93 1013.69 1014.13 1014.57 1014.82 1014.95 1015.11 1015.30 1015.42 1015.53 1015.63 1015.70 1015.69 1015.70 1015.69
1023.71 1024.04 1024.76 1024.80 1023.59 1020.13 1015.13 1013.90 1013.62 1013.65 1012.62 1011.11 1011.39 1011.30 1011.28 1011.72 1011.85 1010.29 1009.73 1009.88 1010.07 1010.04 1009.93 1009.79 1009.94 1010.39 1010.71 1011.19 1011.86 1012.66 1013.24 1013.69 1014.10 1014.31 1014.63 1014.98 1015.18 1015.33 1015.41 1015.44 1015.48 1015.45 1015.49 1015.48
1023.83 1024.16 1023.65 1023.82 1022.64 1019.13 1014.95 1014.23 1013.85 1013.44 1011.64 1010.53 1010.77 1011.01 1011.33 1011.39 1010.61 1009.68 1009.57 1009.67 1009.62 1009.63 1009.62 1009.54 1009.49 1009.75 1010.02 1010.80 1011.64 1012.37 1013.00 1013.27 1013.35 1013.82 1014.18 1014.51 1014.65 1014.86 1015.06 1015.22 1015.32 1015.34 1015.41 1015.39
1022.08 1022.50 1022.73 1022.78 1021.70 1018.03 1013.67 1014.10 1013.40 1010.86 1010.35 1010.19 1010.31 1010.43 1010.64 1010.30 1009.93 1009.66 1009.33 1009.39 1009.43 1009.45 1009.24 1009.22 1009.45 1009.55 1009.72 1010.30 1011.17 1011.78 1012.11 1012.21 1012.86 1013.30 1013.61 1013.81 1014.07 1014.34 1014.49 1014.86 1015.06 1015.18 1015.31 1015.39
1020.54 1019.20 1019.40 1018.94 1016.07 1013.40 1012.90 1011.78 1010.81 1010.68 1010.67 1010.26 1010.17 1009.92 1009.77 1009.66 1009.39 1008.91 1008.82 1008.75 1008.87 1008.98 1009.03 1008.99 1009.12 1009.24 1009.57 1009.99 1010.30 1010.65 1010.62 1011.35 1011.93 1012.42 1012.89 1013.41 1013.72 1013.75 1014.09 1014.53 1014.74 1014.93 1015.06 1015.23
1018.02 1017.13 1017.15 1016.53 1013.39 1012.05 1011.71 1010.75 1010.57 1010.18 1010.16 1009.69 1009.52 1009.19 1009.18 1009.24 1008.83 1008.62 1008.33 1008.20 1008.24 1008.19 1008.34 1008.52 1008.93 1009.14 1009.21 1009.37 1009.57 1009.54 1010.08 1010.69 1011.36 1011.97 1012.61 1013.07 1013.59 1013.93 1013.92 1014.08 1014.28 1014.51 1014.73 1014.91
1016.21 1015.67 1013.90 1013.54 1011.83 1010.65 1010.75 1009.81 1009.45 1009.14 1009.01 1008.90 1008.61 1008.60 1008.32 1008.27 1007.95 1007.70 1007.47 1007.40 1007.39 1007.50 1007.55 1007.75 1008.03 1008.35 1008.46 1008.66 1008.90 1009.19 1009.71 1010.27 1011.06 1011.76 1012.28 1012.83 1013.05 1013.28 1013.55 1013.68 1013.86 1014.09 1014.19 1014.16
1015.08 1012.63 1013.13 1010.65 1009.50 1009.69 1009.16 1008.85 1008.85 1008.95 1008.35 1007.87 1007.81 1007.39 1007.07 1007.05 1006.91 1006.66 1006.63 1006.47 1006.52 1006.65 1006.73 1007.07 1007.22 1007.31 1007.26 1007.69 1008.09 1008.51 1009.07 1009.70 1010.40 1011.21 1011.81 1012.25 1012.60 1013.07 1013.26 1013.50 1013.73 1013.71 1013.57 1013.56
Wind_Speed
5 10 2 1 2 3 3 1 4 6 3 7 5 16 20 16 7 5 3 3 6 6 5 5 6 7 9 8 10 11 14 14 10 7 5 4 4 4 4 4 6 6 5 9
7 4 2 1 1 2 0 3 6 7 3 4 7 19 16 8 2 4 3 4 6 6 6 7 6 6 6 8 11 13 13 12 11 8 6 4 5 5 5 4 5 6 5 4
6 2 1 2 3 2 2 2 3 6 8 3 8 8 3 0 1 3 5 3 4 6 7 6 7 7 6 6 7 12 14 15 12 12 8 6 6 4 3 2 3 4 6 5
3 0 1 2 2 1 3 2 3 5 5 4 4 6 5 4 6 8 8 5 6 6 7 6 8 8 6 7 8 11 14 14 13 11 9 8 7 7 3 3 3 4 6 6
3 3 1 1 1 1 5 2 4 2 0 4 1 4 9 3 7 9 7 7 6 7 7 8 8 7 7 7 8 10 12 12 13 10 9 8 8 5 5 4 5 1 1 4
2 1 2 3 2 3 4 3 2 1 2 3 5 5 8 4 7 4 4 6 7 7 7 7 6 6 5 6 7 10 11 11 11 11 11 10 9 7 4 4 3 3 5 6
5 2 1 1 2 3 6 6 4 6 6 5 3 3 12 7 7 7 8 8 6 7 7 7 7 6 5 7 7 8 10 12 12 11 12 10 8 3 3 3 3 3 3 3
3 6 5 4 4 5 2 5 5 4 3 6 2 7 9 4 6 7 7 8 7 7 7 7 6 5 5 6 7 6 8 10 10 10 10 10 10 4 4 5 5 5 6 4
2 5 1 4 3 5 0 2 3 3 3 3 4 9 10 4 8 7 9 7 9 8 7 8 6 6 5 5 6 6 7 6 8 9 8 9 9 8 6 7 7 5 5 4
1 4 3 1 2 1 3 3 2 3 2 6 7 7 9 5 6 4 6 8 9 7 7 7 6 6 5 6 5 5 5 6 6 6 6 7 8 8 8 7 7 7 6 8
1 4 6 2 5 7 3 2 2 2 5 4 5 10 8 8 5 6 7 7 9 8 8 7 7 6 6 5 5 5 3 3 5 6 6 6 6 6 5 4 5 6 4 4
2 3 5 10 3 5 4 7 6 5 4 3 3 13 4 8 7 5 8 8 7 7 7 7 7 7 6 5 4 2 2 3 3 2 5 4 5 4 5 5 6 5 5 4
4 1 5 7 6 3 5 5 4 4 3 7 5 11 2 4 6 7 8 9 9 8 7 7 7 7 7 6 5 4 2 0 2 4 4 5 6 6 6 7 6 6 5 6
3 3 7 8 6 3 5 5 6 6 5 5 14 16 23 14 12 11 9 10 10 9 10 8 7 8 7 7 6 5 3 1 1 3 4 4 4 4 4 5 5 6 5 5
4 5 4 8 14 13 17 17 15 13 10 10 4 13 26 12 10 10 9 9 9 9 9 10 9 8 8 7 7 6 5 5 4 4 3 2 2 2 3 4 4 4 5 4
2 4 2 6 10 7 15 17 19 21 22 24 27 32 29 26 19 12 12 9 9 10 10 11 11 9 10 9 8 7 7 6 5 4 4 3 3 2 2 2 2 3 3 3
5 3 4 7 7 11 12 9 14 6 6 17 18 25 14 15 9 9 10 8 10 11 10 9 12 11 10 10 9 9 7 6 6 6 5 5 4 2 1 1 2 2 2 2
6 5 3 6 7 4 7 6 7 11 10 18 12 18 14 10 6 8 7 9 10 9 9 8 8 7 9 7 8 7 7 7 6 6 6 5 4 3 1 1 2 2 1 2
6 5 3 4 3 12 9 1 6 7 11 12 21 20 19 4 6 17 8 7 6 6 7 8 7 7 7 9 9 8 7 7 6 6 6 5 4 3 1 0 1 1 1 2
5 4 6 2 4 8 6 2 3 4 8 4 9 14 8 5 3 8 3 4 6 7 6 7 6 4 7 8 9 9 8 8 8 7 6 5 5 4 3 2 2 1 0 1
4 3 13 8 5 12 13 9 2 1 9 2 5 8 5 6 11 3 1 5 4 6 8 7 5 8 9 8 9 9 7 9 7 6 6 6 6 6 5 4 2 1 1 2
9 7 5 6 7 14 9 4 9 8 2 3 3 5 7 10 9 8 9 8 8 9 8 7 6 7 6 9 10 8 10 7 7 7 7 7 6 4 4 5 2 2 1 1
4 9 8 14 13 6 7 7 10 2 4 7 5 8 9 9 8 10 9 8 8 8 7 5 7 7 6 8 10 11 10 9 9 9 8 7 6 5 5 5 4 2 2 2
6 8 7 2 12 22 21 18 14 12 10 15 14 15 10 12 10 11 9 8 7 6 7 6 6 8 8 8 11 12 8 9 10 9 7 6 5 5 5 3 3 3 3 3
8 6 9 10 22 23 24 25 22 17 11 12 12 11 11 10 14 13 14 10 8 7 6 5 8 8 11 8 11 9 8 9 8 6 6 6 5 6 5 4 4 4 4 5
14 25 13 15 23 15 16 19 15 9 19 18 10 11 16 12 15 11 11 9 7 8 6 6 8 8 10 9 10 9 9 11 10 8 6 6 5 4 4 4 3 4 4 2
Wind_Direction
24 66 93 206 42 134 125 185 263 255 254 338 262 280 291 295 290 168 203 304 311 305 297 312 357 348 339 336 337 335 327 326 325 326 328 309 267 267 262 243 247 253 235 234
30 80 229 277 21 53 323 319 301 291 307 317 305 295 286 286 319 180 213 284 316 318 321 330 331 329 324 326 334 329 322 320 315 308 301 272 287 262 242 235 248 236 222 241
113 144 173 13 349 347 285 213 277 252 314 294 327 293 309 224 159 223 239 256 282 285 291 300 293 285 295 304 307 320 317 317 306 297 293 296 295 273 279 306 277 255 213 208
68 338 21 356 286 27 288 202 279 293 6 290 61 289 302 281 258 233 243 261 273 282 294 291 293 300 296 310 318 322 320 307 302 301 289 277 277 283 264 241 244 272 220 189
249 169 196 308 248 57 248 287 263 252 111 342 314 73 268 358 291 265 256 267 276 265 266 284 298 296 303 311 314 313 314 310 311 314 309 296 279 265 268 275 280 246 58 98
281 22 170 230 294 238 310 349 359 70 39 23 250 116 282 210 219 276 257 259 263 274 280 285 294 300 311 309 308 314 324 326 335 332 324 320 278 268 278 301 300 230 120 73
337 250 239 181 328 333 39 46 342 355 6 222 273 46 246 263 249 238 260 272 260 261 269 280 293 292 325 312 316 326 339 344 347 346 341 338 333 332 93 56 18 62 95 82
90 331 189 172 195 188 36 108 140 234 309 284 346 240 256 218 285 256 259 264 274 267 268 273 266 277 307 308 310 328 340 349 353 349 351 353 354 4 48 55 67 73 77 46
55 275 164 187 169 127 134 23 170 90 299 336 250 282 298 261 272 261 261 270 270 262 261 256 252 251 275 289 304 331 337 352 0 2 359 8 5 6 31 57 66 64 73 90
200 320 239 359 98 318 153 162 51 7 12 296 287 278 241 299 283 300 287 262 268 265 255 244 246 249 259 259 273 304 335 348 354 7 18 14 17 26 29 38 55 55 49 46
138 118 290 108 198 181 133 263 197 142 155 193 301 268 216 219 234 272 280 264 260 260 251 236 237 243 250 274 280 289 292 3 0 1 8 23 22 27 47 52 62 79 77 84
199 149 270 231 271 212 190 191 160 131 230 225 173 270 246 235 255 241 268 273 265 254 247 222 227 226 233 236 235 232 358 6 332 7 350 4 17 16 37 37 36 40 55 73
168 257 322 345 357 337 223 205 181 105 74 209 155 260 255 277 265 268 257 271 267 255 234 224 225 225 228 224 221 209 194 127 40 39 33 39 30 24 29 32 34 34 35 40
128 196 193 204 212 163 233 222 195 165 170 198 229 271 263 267 268 285 278 265 268 248 217 211 220 226 222 216 209 204 216 204 126 88 68 57 43 37 34 32 32 28 22 31
146 237 216 258 266 258 255 248 232 215 209 211 277 239 264 272 255 251 265 282 282 271 221 213 215 217 217 216 211 198 199 195 182 153 138 136 113 88 65 52 41 35 36 19
184 266 323 265 269 266 267 250 238 235 236 249 257 273 271 279 280 277 270 270 272 262 237 219 216 204 210 207 203 196 199 198 183 183 189 176 146 134 125 102 84 79 60 37
175 194 10 274 322 314 289 260 213 185 208 218 232 241 271 277 268 256 265 252 261 264 249 229 218 210 208 200 191 200 192 183 187 190 191 181 172 154 110 73 67 46 34 28
161 145 165 278 343 314 243 291 182 204 231 216 251 258 242 246 256 269 253 261 278 284 274 252 229 211 209 183 187 179 175 186 189 198 199 195 179 160 137 78 48 2 23 12
171 135 271 253 237 289 294 30 131 172 280 223 225 254 264 281 321 289 223 214 241 266 276 256 238 219 179 182 180 169 174 182 190 205 204 198 181 190 187 353 331 306 8 346
120 149 183 150 220 249 245 185 164 138 287 302 196 238 256 126 305 266 215 212 274 288 279 276 257 219 179 188 169 166 181 181 199 200 202 191 196 201 210 221 237 236 311 306
130 180 214 225 265 279 260 248 34 104 239 307 185 251 178 191 211 224 170 270 253 257 285 289 202 200 205 160 162 182 178 205 200 185 184 189 193 195 203 207 202 215 283 338
174 160 199 182 234 265 183 76 173 226 255 230 228 237 234 239 279 261 255 262 273 279 282 260 234 225 185 164 170 187 203 190 179 179 183 189 191 201 188 193 217 220 225 311
253 199 186 192 215 242 206 236 240 260 260 281 259 259 242 248 246 251 255 258 262 259 268 250 226 226 201 186 189 195 206 173 174 177 190 190 195 191 189 184 200 201 180 176
242 187 229 87 244 248 255 257 260 266 257 275 268 267 274 258 258 260 257 254 246 244 243 229 227 225 225 199 203 213 173 174 175 183 181 185 185 199 185 184 183 176 186 205
232 172 215 259 264 271 273 266 272 280 264 265 267 252 248 246 260 250 261 250 244 243 242 208 213 221 232 206 210 201 179 166 177 173 174 188 186 196 190 195 186 193 215 191
227 246 242 243 264 260 276 285 290 274 290 285 255 274 270 245 253 251 252 240 235 247 245 230 229 224 227 201 206 194 178 173 169 177 181 190 185 194 184 175 203 228 184 146